Weather History for Winnemucca, NV

Change the Weather History Date:

Friday, January 11, 2013

  Actual Average Record
Temperature  
Mean Temperature 11 °F 30 °F  
Max Temperature 27 °F 41 °F 61 °F (1953)
Min Temperature -6 °F 18 °F -11 °F (1917)
Degree Days  
Heating Degree Days 54 36  
Month to date heating degree days 594 396  
Since 1 July heating degree days 2930 3069  
Cooling Degree Days 0 0  
Month to date cooling degree days 0 0  
Year to date cooling degree days 0 0  
Moisture  
Dew Point 7 °F    
Average Humidity 74    
Maximum Humidity 92    
Minimum Humidity 55    
Precipitation  
Precipitation 0.01 in 0.03 in 0.48 in (1973)
Month to date precipitation 0.16 0.34  
Year to date precipitation 0.16 0.34  
Snow  
Snow T in 0.10 in 4.00 in (2005)
Month to date snowfall 1.9 1.4  
Since 1 July snowfall 16.7 10.2  
Snow Depth 5.00 in    
Sea Level Pressure  
Sea Level Pressure 30.10 in    
Wind  
Wind Speed 4 mph (West)    
Max Wind Speed 16 mph    
Max Gust Speed 20 mph    
Visibility 10 miles    
Events      
T = Trace of Precipitation, MM = Missing Value Source: NWS Daily Summary

Daily Weather History Graph

Daily Weather History Graph

Search for Another Location

Airport:

Trip Planner

Search our weather history database for the weather conditions in past years. The results will help you decide how hot, cold, wet, or windy it might be!

Date:

Astronomy

Jan. 11, 2013 Rise Set
Actual Time 7:14 AM PST 4:44 PM PST
Civil Twilight 6:44 AM PST 5:14 PM PST
Nautical Twilight 6:10 AM PST 5:48 PM PST
Astronomical Twilight 5:37 AM PST 6:21 PM PST
Moon 6:51 AM PST (1/11) 5:07 PM PST (1/11)
Length of Visible Light 10h 29m
Length of Day
9h 29m
Waxing Crescent, 0% of the Moon is Illuminated
Jan 11
Waxing Crescent
Jan 18
First Quarter
Jan 26
Full
Feb 3
Last Quarter
Feb 9
New

Hourly Weather History & Observations

Time (PST) Temp. Windchill Dew Point Humidity Pressure Visibility Wind Dir Wind Speed Gust Speed Precip Events Conditions
12:56 AM 15.1 °F 9.4 °F 12.9 °F 91% 29.97 in 10.0 mi NNE 3.5 mph - N/A   Overcast
1:56 AM 15.1 °F - 12.9 °F 91% 29.97 in 10.0 mi Calm Calm - 0.01 in   Overcast
2:56 AM 12.9 °F - 10.0 °F 88% 29.98 in 10.0 mi Calm Calm - N/A   Overcast
3:56 AM 12.0 °F 1.5 °F 9.0 °F 88% 29.99 in 10.0 mi North 6.9 mph - N/A   Scattered Clouds
4:56 AM 14.0 °F 6.5 °F 10.0 °F 84% 29.99 in 10.0 mi NNE 4.6 mph - N/A   Overcast
5:56 AM 17.1 °F - 10.9 °F 77% 30.01 in 10.0 mi Calm Calm - N/A   Overcast
6:56 AM 15.1 °F - 8.1 °F 74% 30.06 in 10.0 mi Calm Calm - N/A   Scattered Clouds
7:56 AM 15.1 °F - 10.0 °F 80% 30.06 in 10.0 mi Calm Calm - N/A   Mostly Cloudy
8:56 AM 18.0 °F 11.1 °F 12.0 °F 78% 30.08 in 10.0 mi West 4.6 mph - N/A   Overcast
9:56 AM 19.9 °F - 12.9 °F 74% 30.09 in 10.0 mi Calm Calm - N/A   Overcast
10:56 AM 23.0 °F 17.0 °F 12.0 °F 63% 30.08 in 10.0 mi West 4.6 mph - N/A   Overcast
11:56 AM 23.0 °F 14.7 °F 15.1 °F 72% 30.06 in 10.0 mi WSW 6.9 mph - N/A   Partly Cloudy
12:56 PM 25.0 °F 14.8 °F 12.9 °F 60% 30.06 in 10.0 mi West 10.4 mph - N/A   Overcast
1:56 PM 23.0 °F 13.1 °F 10.0 °F 58% 30.08 in 10.0 mi NNW 9.2 mph - 0.00 in   Mostly Cloudy
2:56 PM 24.1 °F 14.4 °F 10.9 °F 57% 30.10 in 10.0 mi NW 9.2 mph - N/A   Clear
3:56 PM 21.9 °F 17.2 °F 10.0 °F 60% 30.13 in 10.0 mi NNW 3.5 mph - N/A   Clear
4:56 PM 12.0 °F 2.7 °F 5.0 °F 73% 30.15 in 10.0 mi SW 5.8 mph - N/A   Clear
5:56 PM 3.9 °F - 1.0 °F 88% 30.18 in 10.0 mi Calm Calm - N/A   Clear
6:56 PM 6.1 °F - 1.9 °F 83% 30.19 in 10.0 mi Calm Calm - N/A   Clear
7:56 PM -0.0 °F -13.0 °F -4.0 °F 83% 30.22 in 10.0 mi SE 6.9 mph - N/A   Clear
8:56 PM 1.0 °F -10.3 °F -2.9 °F 83% 30.22 in 10.0 mi South 5.8 mph - N/A   Clear
9:56 PM -0.9 °F -16.4 °F -5.1 °F 83% 30.24 in 10.0 mi South 9.2 mph - N/A   Clear
10:56 PM -5.1 °F -19.1 °F -9.0 °F 83% 30.26 in 10.0 mi SSE 6.9 mph - N/A   Clear
11:56 PM -5.1 °F -17.6 °F -9.9 °F 80% 30.26 in 10.0 mi South 5.8 mph - N/A   Clear